This is the latest recevied weather packets stored in our database for station/object VE3DVC. If no packets are shown the sender has not sent any weather packets the latest 10 day(s).
| Time | Temp. | Humidity | Pressure | Rain* | Wind** | Luminosity | Snow |
|---|---|---|---|---|---|---|---|
| 1777329701 | 20.56° C | 44% | 1016.6 hPa | 0 mm | - | - | - |
| 1777328981 | 20.56° C | 44% | 1016.6 hPa | 0 mm | - | - | - |
| 1777328261 | 20.56° C | 43% | 1016.9 hPa | 0 mm | - | - | - |
| 1777327541 | 20.56° C | 43% | 1017 hPa | 0 mm | - | - | - |
| 1777326821 | 20.56° C | 43% | 1016.9 hPa | 0 mm | - | - | - |
| 1777326101 | 20.56° C | 44% | 1017.2 hPa | 0 mm | - | - | - |
| 1777325381 | 20.56° C | 44% | 1017.4 hPa | 0 mm | - | - | - |
| 1777323221 | 20.56° C | 42% | 1017.6 hPa | 0 mm | - | - | - |
| 1777322501 | 21.11° C | 45% | 1017.6 hPa | 0 mm | - | - | - |
| 1777321781 | 20.56° C | 44% | 1017.5 hPa | 0 mm | - | - | - |
| 1777320711 | 20.56° C | 45% | 1017.9 hPa | 0 mm | - | - | - |
| 1777319991 | 20.56° C | 45% | 1018.2 hPa | 0 mm | - | - | - |
| 1777319271 | 20.56° C | 45% | 1018.4 hPa | 0 mm | - | - | - |
| 1777318551 | 20.56° C | 46% | 1018.6 hPa | 0 mm | - | - | - |
| 1777317392 | 20.56° C | 47% | 1019 hPa | 0 mm | - | - | - |
| 1777316671 | 20.56° C | 46% | 1019.3 hPa | 0 mm | - | - | - |
| 1777315952 | 20° C | 49% | 1019.4 hPa | 0 mm | - | - | - |
| 1777315232 | 20° C | 49% | 1019.7 hPa | 0 mm | - | - | - |
| 1777314512 | 19.44° C | 49% | 1020.1 hPa | 0 mm | - | - | - |
| 1777313792 | 19.44° C | 49% | 1020.2 hPa | 0 mm | - | - | - |
| 1777312821 | 18.89° C | 52% | 1020.2 hPa | 0 mm | - | - | - |
| 1777312101 | 18.33° C | 53% | 1020.4 hPa | 0 mm | - | - | - |
| 1777311382 | 18.33° C | 55% | 1020.4 hPa | 0 mm | - | - | - |
| 1777310661 | 18.33° C | 55% | 1020.8 hPa | 0 mm | - | - | - |
| 1777309734 | 17.78° C | 56% | 1020.7 hPa | 0 mm | - | - | - |
* Rain latest hour (hover to see other rain measurements)
** Current wind speed in m/s (hover to see current wind gust speed)